GW6447 Weather Reports


time (UTC)temp
F
wind
direction
speed
knots
gust
knots
rain 1hr
in
rain 24hr
in
rain mn
in
humidity
%
barometer
mb
20260503220451 66 172 8.7 16.5 0.00 0.00 0.00 42
20260503215948 66 229 7.8 13.9 0.00 0.00 0.00 42
20260503215445 66 256 8.7 13.0 0.00 0.00 0.00 42
20260503214942 65 202 7.0 16.5 0.00 0.00 0.00 43
20260503214440 65 176 11.3 15.6 0.00 0.00 0.00 43
20260503213937 65 198 9.6 14.8 0.00 0.00 0.00 43
20260503213436 65 190 6.1 8.7 0.00 0.00 0.00 44
20260503212932 65 223 7.0 13.0 0.00 0.00 0.00 42
20260503212429 66 190 9.6 14.8 0.00 0.00 0.00 42
20260503211927 65 220 10.4 13.9 0.00 0.00 0.00 43
20260503211423 65 215 9.6 16.5 0.00 0.00 0.00 43
20260503210919 65 218 12.2 14.8 0.00 0.00 0.00 42
20260503210416 65 193 7.8 16.5 0.00 0.00 0.00 43
20260503205916 65 196 11.3 14.8 0.00 0.00 0.00 42
20260503205414 65 248 7.8 15.6 0.00 0.00 0.00 44
20260503204909 64 193 11.3 19.1 0.00 0.00 0.00 42
20260503204407 64 211 9.6 16.5 0.00 0.00 0.00 43
20260503203904 64 188 8.7 13.9 0.00 0.00 0.00 46
20260503203401 65 205 9.6 16.5 0.00 0.00 0.00 45
20260503202858 64 218 6.1 8.7 0.00 0.00 0.00 47
20260503202356 64 216 11.3 16.5 0.00 0.00 0.00 46
20260503201855 64 222 8.7 13.9 0.00 0.00 0.00 45
20260503201351 63 217 7.0 11.3 0.00 0.00 0.00 48
20260503200849 63 157 13.9 16.5 0.00 0.00 0.00 47
20260503200344 63 254 9.6 20.0 0.00 0.00 0.00 46
20260503195842 63 219 11.3 19.1 0.00 0.00 0.00 47
20260503195338 64 207 7.8 13.0 0.00 0.00 0.00 45
20260503194836 64 196 8.7 22.6 0.00 0.00 0.00 46
20260503194331 63 188 7.0 15.6 0.00 0.00 0.00 45
20260503193828 64 226 11.3 15.6 0.00 0.00 0.00 44
20260503193324 63 224 7.8 20.0 0.00 0.00 0.00 45
20260503192820 64 190 12.2 20.0 0.00 0.00 0.00 43
20260503192315 64 246 9.6 15.6 0.00 0.00 0.00 44
20260503191812 64 207 13.0 20.0 0.00 0.00 0.00 42
20260503191309 64 215 12.2 18.2 0.00 0.00 0.00 41
20260503190806 64 216 10.4 15.6 0.00 0.00 0.00 41
20260503190303 64 243 13.9 20.9 0.00 0.00 0.00 40
20260503185800 63 248 13.0 16.5 0.00 0.00 0.00 44
20260503185255 63 202 8.7 14.8 0.00 0.00 0.00 44
20260503184755 63 218 13.0 21.7 0.00 0.00 0.00 43
20260503184252 62 214 6.1 13.9 0.00 0.00 0.00 46
20260503183748 63 227 11.3 15.6 0.00 0.00 0.00 47
20260503183246 62 195 7.0 9.6 0.00 0.00 0.00 48
20260503182743 62 204 12.2 15.6 0.00 0.00 0.00 47
20260503182242 62 204 7.0 13.9 0.00 0.00 0.00 47
20260503181738 62 209 7.0 14.8 0.00 0.00 0.00 49
20260503181235 61 177 10.4 14.8 0.00 0.00 0.00 49
20260503180731 61 190 8.7 19.1 0.00 0.00 0.00 49
20260503180230 61 215 9.6 14.8 0.00 0.00 0.00 49
20260503175726 61 213 11.3 13.9 0.00 0.00 0.00 49
20260503175224 60 184 12.2 18.2 0.00 0.00 0.00 49
20260503174720 60 194 9.6 15.6 0.00 0.00 0.00 50
20260503174218 59 200 12.2 14.8 0.00 0.00 0.00 52
20260503173713 59 193 13.0 20.0 0.00 0.00 0.00 51
20260503173209 59 194 11.3 16.5 0.00 0.00 0.00 51
20260503172706 59 258 14.8 16.5 0.00 0.00 0.00 51
20260503172203 58 250 12.2 15.6 0.00 0.00 0.00 53
20260503171700 58 202 10.4 19.1 0.00 0.00 0.00 52
20260503171157 58 198 13.0 16.5 0.00 0.00 0.00 51
20260503170654 58 212 10.4 14.8 0.00 0.00 0.00 52
20260503170151 57 204 6.1 15.6 0.00 0.00 0.00 53
20260503160112 52 232 5.2 13.0 0.00 0.00 0.00 70
20260503150542 55 209 7.0 9.6 0.00 0.00 0.00 56
20260503130932 52 227 6.1 9.6 0.00 0.00 0.00 56
20260503130430 52 199 7.0 12.2 0.00 0.00 0.00 56
20260503110332 48 231 4.3 8.7 0.00 0.00 0.00 54
20260503100258 47 219 2.6 7.0 0.00 0.00 0.00 54
20260503090217 46 199 4.3 7.0 0.00 0.00 0.00 55
20260503081144 47 221 4.3 6.1 0.00 0.00 0.00 54
20260503080640 47 205 2.6 5.2 0.00 0.00 0.00 54
20260503080137 47 227 2.6 6.1 0.00 0.00 0.00 54
20260503072614 47 188 5.2 7.8 0.00 0.00 0.00 53
20260503072111 47 217 3.5 5.2 0.00 0.00 0.00 53
20260503071608 47 223 5.2 7.0 0.00 0.00 0.00 53
20260503071105 47 216 2.6 6.1 0.00 0.00 0.00 53
20260503070601 47 197 2.6 7.0 0.00 0.00 0.00 53
20260503055020 47 214 3.5 6.1 0.00 0.00 0.00 52
20260503054516 47 226 3.5 5.2 0.00 0.00 0.00 52
20260503054014 47 206 5.2 7.0 0.00 0.00 0.00 52
20260503053512 47 226 4.3 6.1 0.00 0.00 0.00 51
20260503053009 47 226 4.3 6.1 0.00 0.00 0.00 51
20260503052506 47 212 3.5 6.1 0.00 0.00 0.00 51
20260503052001 47 222 3.5 6.1 0.00 0.00 0.00 51
20260503051457 47 212 4.3 9.6 0.00 0.00 0.00 51
20260503050955 47 232 2.6 7.0 0.00 0.00 0.00 51
20260503050450 48 227 3.5 7.0 0.00 0.00 0.00 51
20260503045948 48 207 4.3 6.1 0.00 0.00 0.00 51
20260503045446 48 191 3.5 5.2 0.00 0.00 0.00 50
20260503044942 48 213 4.3 6.1 0.00 0.00 0.00 50
20260503044439 48 188 5.2 7.0 0.00 0.00 0.00 50
20260503043937 48 218 3.5 6.1 0.00 0.00 0.00 50
20260503043433 48 218 3.5 7.0 0.00 0.00 0.00 50
20260503042929 48 193 3.5 6.1 0.00 0.00 0.00 51
20260503042426 48 192 3.5 7.0 0.00 0.00 0.00 51
20260503041923 48 195 3.5 7.0 0.00 0.00 0.00 51
20260503041420 48 197 1.7 5.2 0.00 0.00 0.00 51
20260503040917 48 214 3.5 7.0 0.00 0.00 0.00 51
20260503040414 48 202 2.6 6.1 0.00 0.00 0.00 51
20260503035912 48 198 3.5 3.5 0.00 0.00 0.00 51
20260503035408 48 207 4.3 6.1 0.00 0.00 0.00 52
20260503034906 48 194 3.5 5.2 0.00 0.00 0.00 52
20260503034403 47 204 3.5 3.5 0.00 0.00 0.00 52
20260503033900 47 204 1.7 5.2 0.00 0.00 0.00 53
20260503033358 46 197 1.7 2.6 0.00 0.00 0.00 55
20260503032855 46 189 0.9 1.7 0.00 0.00 0.00 57
20260503032354 45 185 1.7 2.6 0.00 0.00 0.00 57
20260503031851 45 175 1.7 2.6 0.00 0.00 0.00 57
20260503031349 45 173 0.9 0.9 0.00 0.00 0.00 57
20260503030845 45 186 0.9 1.7 0.00 0.00 0.00 58
20260503030341 45 169 0.0 0.0 0.00 0.00 0.00 57
20260503025838 45 166 0.0 0.0 0.00 0.00 0.00 57
20260503025336 45 166 0.0 0.0 0.00 0.00 0.00 56
20260503024833 45 167 0.0 0.0 0.00 0.00 0.00 56
20260503024329 45 165 0.0 0.9 0.00 0.00 0.00 56
20260503023826 44 165 0.0 0.0 0.00 0.00 0.00 56
20260503023323 44 165 0.0 0.0 0.00 0.00 0.00 54
20260503022820 45 165 0.0 0.0 0.00 0.00 0.00 53
20260503022320 46 165 0.0 0.0 0.00 0.00 0.00 54
20260503021816 46 165 0.0 0.0 0.00 0.00 0.00 52
20260503021313 47 165 0.0 0.0 0.00 0.00 0.00 51
20260503020811 47 165 0.0 0.9 0.00 0.00 0.00 50
20260503020308 48 178 0.0 0.0 0.00 0.00 0.00 48
20260503015804 48 178 0.0 0.0 0.00 0.00 0.00 46
20260503015302 49 171 0.9 0.9 0.00 0.00 0.00 47
20260503014757 49 180 0.9 1.7 0.00 0.00 0.00 46
20260503014255 49 199 1.7 1.7 0.00 0.00 0.00 45
20260503013752 50 211 1.7 2.6 0.00 0.00 0.00 44
20260503013249 50 185 0.9 1.7 0.00 0.00 0.00 44
20260503012746 51 184 0.9 2.6 0.00 0.00 0.00 43
20260503012244 51 182 0.9 2.6 0.00 0.00 0.00 42
20260503011740 51 189 1.7 2.6 0.00 0.00 0.00 42
20260503011238 51 198 0.9 2.6 0.00 0.00 0.00 41
20260503010733 52 192 0.0 1.7 0.00 0.00 0.00 41
20260503010231 52 198 2.6 2.6 0.00 0.00 0.00 40
20260503005728 52 200 2.6 3.5 0.00 0.00 0.00 40
20260503005225 53 206 2.6 2.6 0.00 0.00 0.00 39
20260503004721 53 210 3.5 5.2 0.00 0.00 0.00 39
20260503004220 53 222 2.6 5.2 0.00 0.00 0.00 39
20260503003717 53 221 3.5 5.2 0.00 0.00 0.00 38
20260503003214 53 198 2.6 5.2 0.00 0.00 0.00 38
20260503002710 54 211 1.7 6.1 0.00 0.00 0.00 38
20260503002207 54 206 2.6 5.2 0.00 0.00 0.00 38
20260503001703 54 200 2.6 3.5 0.00 0.00 0.00 38
20260503001200 54 215 3.5 7.0 0.00 0.00 0.00 38
20260503000658 54 264 5.2 7.0 0.00 0.00 0.00 38
20260503000155 54 233 2.6 5.2 0.00 0.00 0.00 38
20260502235651 55 244 4.3 8.7 0.00 0.00 0.00 37
20260502235149 55 228 5.2 7.8 0.00 0.00 0.00 37
20260502234645 55 226 4.3 7.0 0.00 0.00 0.00 37
20260502234143 55 264 2.6 7.0 0.00 0.00 0.00 37
20260502233639 54 228 4.3 6.1 0.00 0.00 0.00 37
20260502233135 54 195 1.7 6.1 0.00 0.00 0.00 37
20260502232631 54 206 2.6 6.1 0.00 0.00 0.00 37
20260502232129 55 227 4.3 7.0 0.00 0.00 0.00 36
20260502231625 55 226 3.5 6.1 0.00 0.00 0.00 36
20260502231123 55 232 2.6 7.0 0.00 0.00 0.00 35
20260502230621 55 231 3.5 6.1 0.00 0.00 0.00 36
20260502230120 55 252 3.5 7.8 0.00 0.00 0.00 35
20260502225615 56 225 2.6 7.0 0.00 0.00 0.00 37
20260502225112 56 226 3.5 7.8 0.00 0.00 0.00 38
20260502224608 55 185 5.2 8.7 0.00 0.00 0.00 37
20260502224105 55 201 2.6 6.1 0.00 0.00 0.00 36
20260502223603 55 230 6.1 7.8 0.00 0.00 0.00 36
20260502223102 55 287 6.1 8.7 0.00 0.00 0.00 36
20260502222558 55 298 3.5 7.8 0.00 0.00 0.00 36
20260502222054 56 223 5.2 7.0 0.00 0.00 0.00 36
20260502221550 56 240 6.1 7.8 0.00 0.00 0.00 36
20260502221048 55 224 5.2 7.8 0.00 0.00 0.00 36